ZTF彗星

C/2021 E3 ( ZTF )

English version
Home page
Updated on April 15, 2023

---------------------------------------------------------------------

・ プロフィール

発見日 2021年3月9日
発見光度 19.6等
発見者 Zwicky Transient Facility

・ 写真集

・ 軌道要素

Epoch 2022 Aug. 9.0 TT = JDT 2459800.5
T 2022 June 11.91157 TT                                 Rudenko
q   1.7773906            (2000.0)            P               Q
z  -0.0005103      Peri.  228.85081     -0.11525266     -0.43253540
 +/-0.0000010      Node   104.46922     -0.37417008     +0.85281586
e   1.0009071      Incl.  112.55493     -0.92017041     -0.29260594
>From 1066 observations 2021 Mar. 9-2022 Nov. 1, mean residual 0".5.

・ 星図

・ 光度変化

        m1 = 5.5 + 5 logΔ + 13.5 log r

---------------------------------------------------------------------

軌道要素はM.P.E.C. 2022-V95に掲載されたものです。
星図はステラナビゲータ Ver.10 (アストロアーツ) で作成したものです。
光度グラフはComet for Windowsで作成したものです。

---------------------------------------------------------------------

Copyright(C) Seiichi Yoshida (comet@aerith.net). All rights reserved.